Location: San Antonio de Areco
(34.2500°S, 59.4670°W)
Time: 09:58:41
(UTC-03:00)

ISS - Visible Passes

Search period start: 30 October 2014 00:00
Search period end: 09 November 2014 00:00
Orbit: 412 x 417 km, 51.6° (Epoch: 30 October)

Date Brightness Start Highest point End Pass type
(mag) Time Alt. Az. Time Alt. Az. Time Alt. Az.
31 Oct -1.2 05:01:36 10° SSW 05:04:39 30° SE 05:07:40 10° E visible
01 Nov -0.4 04:12:50 10° SSW 04:15:20 19° SSE 04:17:50 10° E visible
01 Nov -1.3 20:51:45 10° NNW 20:52:47 17° N 20:52:47 17° N visible
02 Nov 0.1 03:24:20 10° S 03:25:55 13° SSE 03:27:30 10° SE visible
02 Nov -3.3 04:59:38 10° SW 05:03:01 86° NW 05:06:22 10° NE visible
02 Nov -1.7 20:03:23 10° N 20:05:46 18° NE 20:08:10 10° E visible
02 Nov -1.6 21:39:08 10° WNW 21:42:15 34° SW 21:42:21 34° SSW visible
03 Nov -2.2 04:10:28 10° SW 04:13:46 47° SE 04:17:01 10° ENE visible
03 Nov -2.9 20:49:35 10° NW 20:52:56 66° SW 20:56:18 10° SE visible
03 Nov 0.3 22:29:30 10° SW 22:30:10 10° SSW 22:30:51 10° SSW visible
04 Nov -0.9 03:25:14 24° ESE 03:25:14 24° ESE 03:27:18 10° E visible
04 Nov -2.2 04:58:18 11° WSW 05:01:00 25° NW 05:03:46 10° N visible
04 Nov -3.2 20:00:19 10° NW 20:03:38 61° NE 20:06:59 10° SE visible
04 Nov -0.1 21:38:30 10° WSW 21:40:36 15° SSW 21:42:42 10° S visible
05 Nov -0.8 04:14:34 13° NNE 04:14:34 13° NNE 04:15:01 10° NNE visible
05 Nov -0.7 20:48:15 10° W 20:51:03 24° SW 20:53:52 10° SSE visible
06 Nov -1.7 19:58:21 10° WNW 20:01:33 40° SW 20:04:47 10° SSE visible
07 Nov 0.1 20:47:59 10° SW 20:49:14 12° SSW 20:50:29 10° S visible
